Location: Litvinovka
(48.6667°N, 34.3500°E)
Time: 09:38:54
(UTC+00:00)

MOS 1 Rocket - Pass Details

Date: 18 September 2020
Orbit: 614 x 831 km, 97.4° (Epoch: 25 October)

Event Time Altitude Azimuth Distance (km) Brightness Sun altitude
Rises 17:17:22 0° 10° (N) 3,044 6.7 -15.2°
Reaches altitude 10° 17:19:40 10° 7° (N) 2,094 5.9 -15.5°
Maximum altitude 17:24:10 63° 287° (WNW) 716 3.6 -16.2°
Drops below altitude 10° 17:28:25 10° 206° (SSW) 1,991 5.7 -16.9°
Sets 17:30:35 0° 204° (SSW) 2,881 6.5 -17.2°
